Regional Weather Roundup
Issued by NWS Cleveland, OH

Home | Current Version | Previous Version | Graphics & Text | Print | Product List | Glossary On
Versions: 1 2 3 4 5 6 7 8 9 10 11 12 13 14 15 16 17 18 19 20 21 22 23 24 25 26 27 28 29 30 31 32 33 34 35 36 37 38 39 40 41 42 43 44 45 46 47 48 49 50
000
ASUS41 KCLE 201102
RWRCLE
OHIO REGIONAL WEATHER ROUNDUP
NATIONAL WEATHER SERVICE CLEVELAND, OH
600 AM EST TUE FEB 20 2018

NOTE: "FAIR" INDICATES FEW OR NO CLOUDS BELOW 12,000 FEET WITH NO
SIGNIFICANT WEATHER AND/OR OBSTRUCTIONS TO VISIBILITY.

OHZ001>008-015>018-024>027-034-035-043-044-201200-
   NORTHWEST OHIO

CITY           SKY/WX    TMP DP  RH WIND       PRES   REMARKS
DEFIANCE       CLOUDY    59  55  87 S9        29.98S
FINDLAY        CLOUDY    64  55  72 S22       30.01S
TOLEDO EXPRESS LGT RAIN  61  58  90 S13       29.98S
TOLEDO EXEC    CLOUDY    62  56  80 SW14      30.00R
LIMA           CLOUDY    61  57  87 S18G29    30.02S
$$

OHZ009>014-019>023-028>033-038-089-201200-
   NORTHEAST OHIO

CITY           SKY/WX    TMP DP  RH WIND       PRES   REMARKS
CLE-HOPKINS    CLOUDY    63  54  72 S13G23    30.08R
CLE-LAKEFRONT  CLOUDY    64  53  67 S16G29    30.04R
CUY CO. ARPT   NOT AVBL
LORAIN-ELYRIA  CLOUDY    63  51  65 SW13G21   30.06R
ASHTABULA      CLOUDY    61  54  77 S12       30.09S
AKRON-CANTON   CLOUDY    61  53  75 SW15G23   30.12S
WOOSTER        CLOUDY    60  53  77 SW9       30.12R
MANSFIELD      CLOUDY    62  55  77 S24G32    30.09R
YOUNGSTOWN     CLOUDY    62  53  72 SW12G18   30.12S
$$

OHZ042-051>053-060>062-070>072-077>081-201200-
  SOUTHWEST OHIO

CITY           SKY/WX    TMP DP  RH WIND       PRES   REMARKS
CINC-COVINGTON FAIR      60  57  89 S10       30.11R
CINC-LUNKEN    FAIR      62  56  80 S12       30.13R
HAMILTON       FAIR      63  56  78 VRB6      30.11R
DAYTON         FAIR      61  57  87 S16       30.10R
WRIGHT-PAT AFB FAIR      62  56  81 S15G24    30.09R
DAYTON GENERAL FAIR      62  54  74 S13       30.10R
WILMINGTON     FAIR      60  56  86 S12       30.13R
$$

OHZ036-037-039>041-045>050-054>059-063>069-073>076-082>088-201200-
  CENTRAL AND SOUTHEAST OHIO

CITY           SKY/WX    TMP DP  RH WIND       PRES   REMARKS
COLUMBUS       CLOUDY    63  56  78 S12       30.13R
OSU AIRPORT    CLOUDY    63  57  81 S14       30.11R
BOLTON FIELD   CLOUDY    62  55  80 S12G18    30.14R
RICKENBACK AFB CLOUDY    63  57  80 SW16G22   30.13S
NEWARK         CLOUDY    61  53  75 S9        30.14R
MARION         CLOUDY    61  54  77 S18G26    30.09R
LANCASTER      CLOUDY    63  54  72 S12       30.16R
ZANESVILLE     CLOUDY    62  53  72 S10       30.17R
NEW PHILLY     NOT AVBL
$$



USA.gov is the U.S. government's official web portal to all federal, state and local government web resources and services.